Theta_e
302 302 302 303 303 304 304 303 304 306 309 308 306 306 306 305 304 307 310 307 305 307 308 306 307 308 307 307 304 299 300 302 304 306 305 305 306 306 306 306 305 304 304 303 302 302 303 303 304 305 305 306 307 308 308 308 309 312 315 317 319 321 323 322 322 321 320 320 319 319 319 318 319 319 320 323 328 330 330 331 333 332 333 333 332 331
303 303 303 303 303 304 304 304 305 304 306 307 306 304 302 303 304 303 306 305 303 305 307 305 304 305 305 305 303 298 300 301 301 303 304 305 305 306 306 306 305 304 303 303 302 302 302 302 302 302 303 304 305 306 307 307 306 306 307 308 309 309 312 315 317 319 320 320 320 319 319 319 319 319 318 318 320 322 323 326 329 331 332 333 332 331
305 304 304 305 303 303 303 304 305 304 306 307 305 302 300 304 304 301 304 306 304 305 307 307 304 304 304 304 302 300 300 300 300 301 301 302 302 303 304 304 304 303 302 302 302 302 302 302 302 302 302 302 303 304 305 306 305 305 304 304 304 304 305 307 309 312 315 317 318 319 320 319 319 319 319 319 319 319 320 320 322 324 327 331 333 333
305 305 304 303 301 300 301 302 304 304 304 305 304 302 301 303 301 300 303 304 305 304 304 305 303 303 303 302 302 298 296 298 299 299 299 299 300 300 301 302 302 301 301 301 301 302 302 302 302 302 302 302 302 303 304 304 304 304 305 305 305 304 304 305 306 309 311 313 314 316 318 319 320 320 320 320 320 319 320 319 319 320 322 325 328 329
306 305 301 300 300 302 302 301 303 302 301 304 305 305 306 305 301 301 301 303 305 303 301 302 302 304 304 302 303 301 297 298 298 298 298 299 300 300 300 300 301 301 301 302 301 302 302 302 302 302 302 302 302 302 303 303 304 304 305 306 305 304 304 304 306 307 309 311 313 314 316 317 319 320 320 320 320 320 320 320 319 319 319 321 322 322
306 303 300 301 301 304 305 303 305 303 300 303 305 305 309 308 304 302 302 304 305 303 303 301 300 308 307 301 302 304 303 301 298 298 298 300 301 300 301 301 301 301 301 302 302 302 302 302 302 302 302 302 302 302 302 302 303 304 304 304 304 304 304 304 305 306 308 309 311 313 315 317 318 319 319 320 320 320 320 320 319 319 319 320 321 321
305 302 301 303 303 304 304 303 304 303 301 302 302 302 305 305 305 304 302 304 305 303 301 300 301 308 306 302 303 303 303 303 301 301 299 300 302 301 300 301 301 302 302 302 302 302 302 302 302 302 303 302 302 302 302 302 303 303 303 303 304 305 305 304 305 306 307 308 308 309 310 312 315 317 319 320 320 320 320 321 321 321 321 320 321 321
303 302 302 304 303 303 302 302 302 303 303 302 301 302 303 303 303 304 302 302 306 304 301 302 303 302 303 306 304 299 299 301 303 306 302 298 299 299 299 300 300 300 301 301 302 302 302 302 302 303 303 303 303 303 303 303 303 303 305 306 307 308 307 306 306 306 307 308 309 310 310 310 311 313 317 319 320 319 319 321 321 322 322 322 322 320
300 302 303 303 302 301 302 304 302 302 302 301 301 302 303 303 302 303 303 302 303 303 302 303 300 299 304 306 301 298 299 299 302 307 303 296 296 297 297 299 299 299 299 300 301 301 301 302 302 303 303 303 303 302 302 301 301 302 304 307 309 310 310 308 308 307 308 308 308 309 309 309 309 310 312 315 317 317 317 319 320 322 323 322 322 321
298 300 301 302 302 301 304 304 300 302 302 300 300 301 301 301 301 303 305 304 303 302 302 302 299 298 303 303 298 298 299 300 303 304 299 294 295 296 296 296 297 297 298 298 299 299 300 300 301 301 301 301 301 300 300 300 300 300 301 303 306 308 308 308 308 308 308 307 306 305 306 307 308 308 309 310 312 314 315 317 318 320 321 323 325 325
297 297 299 300 301 301 303 300 297 301 300 298 301 302 301 301 302 304 305 304 302 300 299 300 300 297 299 302 300 298 299 301 303 300 294 294 295 294 293 292 293 294 295 296 297 298 298 299 299 300 300 300 300 299 299 299 299 300 299 299 300 302 302 303 303 304 304 304 304 304 304 306 307 308 309 309 310 311 312 313 316 317 318 321 325 328
296 297 299 299 299 298 299 298 297 299 298 300 304 304 303 303 303 304 304 301 299 300 299 298 299 297 297 301 299 297 296 296 297 296 293 293 292 291 290 289 290 291 293 294 295 296 297 298 299 299 299 299 299 299 299 300 300 300 300 299 299 298 299 299 299 299 300 300 301 301 302 304 306 307 307 308 308 308 309 310 313 315 317 318 321 324
298 298 298 299 299 298 299 299 299 300 299 301 304 303 302 300 300 300 300 299 298 298 296 295 296 296 297 297 295 294 293 292 293 293 292 291 289 288 287 287 288 290 292 293 293 294 295 296 296 297 297 298 298 299 298 299 299 299 299 299 298 298 298 298 298 299 299 299 300 300 301 302 304 305 306 306 306 306 306 307 309 312 314 317 318 319
298 298 297 299 300 298 298 298 299 301 299 299 300 301 300 298 298 298 297 296 297 297 295 294 297 299 299 296 292 291 291 290 290 290 289 288 287 286 285 285 287 289 290 291 291 292 292 292 293 294 295 295 296 297 297 298 298 298 298 298 298 298 298 298 298 298 299 300 301 301 302 302 303 304 305 305 305 305 305 306 308 309 311 315 318 319
297 297 298 298 298 297 297 297 298 300 299 298 300 300 299 299 299 298 297 297 297 297 295 295 298 301 299 295 290 290 289 288 288 287 286 286 285 285 284 284 286 287 289 289 290 291 291 291 292 292 293 294 294 295 296 296 297 297 297 297 297 297 297 298 298 299 299 300 302 303 303 304 304 304 304 305 305 306 307 307 308 309 310 313 317 320
296 297 296 294 293 294 295 294 296 299 300 299 299 299 298 298 300 298 297 297 298 298 297 297 299 298 295 292 289 289 288 287 287 285 285 285 284 283 283 283 283 285 286 287 288 289 289 290 291 291 292 292 293 293 294 294 295 296 296 297 297 297 297 298 298 299 300 301 302 303 304 304 304 304 304 304 305 306 307 309 311 312 313 314 316 319
296 297 296 293 293 292 291 292 294 296 299 299 298 299 298 297 299 299 296 295 296 297 297 299 300 296 292 291 290 288 287 286 285 285 284 284 283 282 281 281 281 283 284 285 286 287 287 288 289 290 290 290 291 292 292 293 292 293 295 296 296 297 297 297 298 299 300 301 302 303 304 304 304 304 304 304 305 307 309 310 312 313 315 315 315 318
295 297 296 293 295 293 289 291 293 292 295 299 299 299 297 296 298 299 298 297 296 296 297 298 299 297 296 295 291 288 286 285 284 284 283 283 282 282 280 279 280 281 282 283 285 286 286 287 288 288 289 289 289 290 291 291 291 291 292 293 295 296 296 297 297 298 299 299 300 301 302 303 303 303 304 304 305 307 308 310 310 310 313 314 315 316
293 295 294 291 292 292 290 293 295 293 292 294 296 296 296 298 299 299 300 299 297 297 298 299 298 297 297 295 291 288 286 284 284 283 283 282 281 281 280 279 279 281 282 283 283 284 285 286 286 287 287 288 288 288 289 290 290 291 291 291 292 293 295 296 296 297 298 298 299 300 301 301 302 302 303 303 304 305 306 308 308 308 311 315 315 315
292 294 294 291 289 291 294 295 296 295 292 291 293 295 295 296 297 297 298 298 298 298 297 298 298 296 293 291 288 286 285 284 283 282 282 282 281 280 279 277 278 279 281 282 282 283 283 284 285 286 286 287 287 287 288 288 289 289 290 290 290 291 293 294 296 296 297 297 298 299 299 300 301 301 302 303 303 304 305 306 307 308 310 313 315 315
291 292 292 291 290 292 293 291 289 290 290 290 293 294 293 294 296 295 295 295 297 298 297 298 298 293 289 287 285 284 284 283 283 282 281 281 280 279 278 277 276 277 279 280 281 281 282 283 284 285 285 286 286 287 287 287 287 288 288 289 290 290 291 292 294 295 296 297 297 298 299 299 300 301 301 302 303 304 305 306 307 309 311 312 312 313
289 290 289 290 292 292 289 286 286 286 287 288 289 290 290 291 293 294 294 294 294 296 296 296 297 292 287 286 284 283 283 282 282 281 281 280 279 278 277 276 276 276 278 279 280 281 281 282 283 284 284 285 286 286 286 287 287 287 287 288 289 289 291 291 292 294 295 296 297 297 297 298 299 300 300 301 302 303 304 306 308 309 311 312 312 313
286 286 288 288 288 288 286 283 284 285 286 287 287 287 288 288 289 291 293 292 291 292 292 292 295 291 286 284 284 283 282 281 280 280 279 279 278 277 277 275 275 276 278 278 279 280 281 281 282 283 284 284 285 285 286 286 287 287 287 287 288 289 290 291 292 293 294 295 296 296 297 297 298 299 299 300 301 302 303 305 307 309 309 310 311 311
286 285 287 287 285 286 285 283 283 284 286 287 285 284 285 285 285 286 287 287 286 288 290 292 293 290 285 284 284 282 281 280 279 278 278 277 277 276 276 275 274 276 277 278 279 279 280 281 281 282 283 284 284 285 285 286 286 287 287 287 287 288 289 290 291 292 293 294 294 295 295 296 296 297 298 299 300 301 302 303 305 307 308 309 309 310
285 285 285 285 285 286 287 286 285 285 285 285 283 283 283 283 283 283 284 285 284 286 288 291 292 289 285 284 283 282 280 279 278 277 276 276 275 275 274 274 273 274 276 277 278 278 279 279 280 281 281 282 283 284 285 285 286 286 287 287 287 287 288 289 290 291 293 293 293 293 294 295 295 296 297 298 299 300 301 302 303 304 306 307 308 308
284 283 283 284 284 284 285 286 285 284 284 282 282 282 282 282 283 283 284 284 284 285 286 287 289 288 285 283 282 280 279 278 277 276 275 275 274 273 274 273 272 272 274 275 276 277 278 278 279 280 280 281 282 283 284 284 285 286 286 287 287 287 288 289 290 291 292 293 293 292 292 293 294 295 295 296 297 299 300 301 302 303 304 305 306 307
283 282 282 283 283 282 284 284 284 283 282 281 281 281 281 281 281 283 283 282 282 283 282 283 284 284 283 283 281 279 278 277 276 275 274 274 273 272 273 273 273 272 272 273 274 275 277 277 278 278 279 280 281 281 282 283 284 285 286 286 287 287 287 288 289 290 291 292 292 292 291 292 292 293 294 295 296 297 299 300 300 302 303 304 305 305
283 282 281 281 282 282 282 282 282 282 281 281 281 280 280 280 281 282 282 280 281 281 280 282 282 281 281 281 279 278 277 276 275 274 273 273 272 272 271 272 273 273 273 273 274 274 274 275 276 277 278 279 280 281 281 282 283 284 284 285 286 287 287 288 289 289 290 291 291 291 291 291 291 292 293 294 295 296 298 298 299 300 301 302 303 303
282 282 280 279 281 282 280 279 280 281 281 280 281 280 280 279 279 280 280 280 281 280 279 281 281 279 280 279 276 275 274 274 274 273 272 272 271 271 270 270 271 272 273 273 273 273 273 273 274 275 277 278 278 279 281 282 283 283 283 284 285 286 286 287 288 288 288 290 290 290 290 290 290 291 292 293 295 296 296 297 298 299 300 301 302 302
280 281 280 279 280 281 279 278 278 279 279 279 279 279 279 279 279 279 279 279 279 279 279 280 279 279 279 276 273 273 272 273 273 272 271 271 270 269 269 269 268 269 271 272 272 272 273 272 272 273 274 276 277 278 279 280 281 282 282 283 284 285 285 286 286 286 287 288 288 288 289 289 290 291 291 293 294 295 296 296 297 298 298 299 300 301
279 280 279 279 279 280 280 279 277 277 278 278 278 279 279 278 279 278 278 278 278 278 279 279 279 279 276 273 272 272 270 271 272 271 270 269 268 268 267 267 267 267 269 270 271 271 272 272 272 272 272 273 275 276 278 278 279 280 281 281 282 283 284 284 284 285 285 286 287 287 287 288 289 290 291 292 293 294 295 296 296 297 297 298 299 299
280 279 279 279 279 279 279 279 277 278 277 277 277 278 278 278 278 278 278 279 278 278 278 278 278 278 274 271 271 271 269 269 270 270 269 268 267 267 266 266 265 265 266 269 270 270 271 271 271 272 271 271 272 274 275 277 278 279 279 280 281 282 283 283 283 283 284 284 286 286 287 287 288 289 290 291 292 293 294 295 295 296 296 297 297 298
279 279 279 279 279 278 277 277 278 278 276 275 276 277 277 277 277 277 278 279 278 278 278 278 277 273 270 270 270 270 268 268 269 269 268 267 266 265 265 264 264 264 264 266 268 269 270 270 270 270 270 270 270 271 272 274 276 277 278 279 279 280 281 282 282 282 282 283 284 285 286 286 287 288 289 290 291 292 293 294 294 294 295 296 296 296
278 279 279 278 278 277 276 277 278 276 275 275 276 277 277 277 277 277 277 277 275 274 274 274 272 269 267 268 269 268 267 267 267 267 266 265 265 264 264 263 263 263 263 263 265 267 269 270 270 270 270 269 270 270 270 271 273 275 276 277 278 279 280 281 281 281 281 282 283 284 285 286 286 287 288 288 290 291 292 293 293 293 294 294 295 295
278 278 277 277 277 276 276 276 276 274 275 275 275 275 275 275 276 276 275 273 270 270 271 271 269 267 267 267 266 266 266 266 266 266 266 265 265 264 263 263 262 262 262 262 262 264 265 267 269 269 270 270 270 270 270 271 272 273 274 276 277 278 279 280 280 280 281 281 282 283 284 285 285 286 287 287 288 290 291 292 292 292 293 293 293 293
278 277 277 277 276 275 275 275 274 274 274 275 274 274 274 274 275 275 275 272 268 267 269 269 268 266 265 265 265 265 265 265 265 266 265 265 265 265 264 263 262 262 262 261 262 262 263 264 265 267 268 269 269 269 270 270 271 272 273 275 276 277 278 279 279 279 280 280 281 282 283 284 285 285 286 287 287 288 290 291 291 291 291 292 292 292
277 277 276 276 275 275 274 275 275 274 275 276 275 273 272 273 273 273 275 273 267 265 267 268 267 266 265 264 264 264 265 265 266 266 265 264 265 265 264 263 263 262 262 262 263 262 263 263 264 265 266 267 267 268 269 270 270 271 272 273 274 276 276 278 278 279 279 279 280 281 282 283 284 284 285 286 286 287 289 289 290 290 290 290 290 290
277 276 276 275 275 275 274 274 274 273 274 275 274 270 269 270 270 271 274 273 267 263 265 266 265 265 265 264 264 264 265 268 269 268 265 265 265 264 264 263 263 262 262 263 264 264 264 265 265 265 265 266 266 267 268 269 270 270 271 272 273 274 275 276 277 277 278 279 279 280 281 282 283 283 284 285 285 285 287 288 289 289 289 289 289 289
276 275 275 275 275 275 274 274 273 273 274 275 272 269 269 270 269 270 273 274 267 263 264 265 264 264 264 263 263 263 265 270 271 268 265 265 265 264 263 263 262 262 262 263 263 264 264 265 265 266 266 266 266 267 268 269 269 270 270 271 272 272 273 274 275 276 277 278 279 279 280 281 282 283 283 284 284 284 286 287 288 288 288 288 288 288
275 275 275 274 275 275 274 273 273 274 274 272 269 269 269 269 270 271 274 274 267 263 264 264 264 264 264 263 263 262 265 269 269 265 264 264 263 263 262 262 261 261 262 262 263 263 263 264 265 265 266 266 266 267 268 269 269 269 270 270 271 271 272 273 274 275 276 277 278 279 279 280 282 282 282 283 284 284 284 285 286 287 286 286 286 286
274 274 274 274 274 274 274 274 273 274 274 269 268 269 269 269 271 273 273 271 266 263 264 264 263 264 263 262 262 262 263 265 264 263 263 262 261 262 261 261 261 261 261 262 262 262 262 263 264 265 265 265 265 266 267 268 268 269 269 269 270 270 271 272 273 274 275 277 278 278 278 280 281 281 282 283 283 283 283 284 284 284 284 284 284 284
274 274 273 273 273 273 274 273 273 274 272 268 267 269 269 271 274 272 269 266 264 264 264 263 263 263 262 262 262 261 262 262 262 262 262 261 260 260 260 260 260 261 261 262 262 261 261 263 264 265 265 265 265 265 266 267 267 268 269 269 269 270 270 271 272 273 274 276 277 277 278 279 280 281 281 282 282 282 283 283 282 282 283 283 283 283
274 274 274 274 273 272 272 273 273 274 271 267 268 270 270 271 271 268 264 264 264 263 263 263 263 262 262 261 261 261 260 260 260 260 260 260 260 260 259 259 259 260 261 261 262 261 261 262 263 264 264 264 264 265 265 265 266 267 268 268 268 269 269 270 271 272 273 275 276 277 278 279 279 280 281 281 281 281 282 283 282 282 282 283 283 283
274 274 274 274 274 273 273 274 273 271 267 265 267 269 269 268 266 264 264 264 263 262 262 262 262 261 261 261 260 260 259 259 259 259 258 259 259 259 259 259 259 259 260 260 261 261 261 261 262 263 264 264 264 264 264 264 265 266 267 268 268 268 269 269 270 270 272 274 275 276 277 278 278 279 280 281 281 281 282 282 282 282 282 282 283 283
273 271 271 272 273 272 273 273 269 266 264 265 266 266 265 265 264 264 264 263 262 262 262 262 261 260 260 260 259 259 258 258 258 258 258 258 258 259 259 259 259 259 259 260 260 260 260 261 261 262 263 263 263 263 263 263 264 266 267 267 267 267 268 269 269 269 271 273 274 275 276 277 277 279 280 280 280 281 281 282 282 282 282 283 283 283
268 266 267 270 272 271 270 268 265 264 264 265 265 264 264 264 263 263 263 263 262 262 261 261 261 260 260 259 258 258 257 257 257 257 257 258 258 258 258 258 258 259 259 259 260 260 260 260 261 261 262 263 263 263 263 263 264 265 266 266 267 267 268 268 268 268 270 272 273 274 276 276 276 278 279 280 280 280 281 281 282 282 283 283 283 283
266 265 267 270 270 271 270 266 263 264 264 264 264 264 263 263 263 263 263 262 262 261 261 260 260 260 259 258 258 257 257 257 257 257 257 258 258 258 258 258 258 258 259 259 259 259 260 260 260 260 261 262 262 262 263 263 264 264 265 265 266 266 267 267 267 268 270 271 272 273 274 275 275 277 279 279 280 280 280 281 282 282 282 283 283 283
268 266 268 270 269 270 270 266 262 263 263 263 263 263 262 262 262 262 262 262 261 261 261 260 259 259 258 258 257 256 256 257 257 257 257 257 257 257 257 257 258 258 259 259 259 259 259 259 259 260 260 261 261 262 262 263 264 264 264 265 265 266 266 266 267 268 269 270 271 272 273 274 275 277 278 279 279 280 280 280 281 282 282 282 282 282
267 267 268 269 268 269 268 265 262 263 264 262 262 262 261 261 261 261 261 261 260 260 260 259 259 258 257 257 257 256 256 257 257 257 257 257 257 257 257 257 257 258 258 258 258 258 259 259 259 259 260 260 260 261 262 263 263 264 264 265 265 265 266 267 266 267 268 269 270 272 273 273 275 276 277 278 279 279 280 280 280 281 282 282 282 282
267 269 267 267 268 270 269 266 264 266 266 263 261 262 261 261 261 260 260 260 260 259 259 258 258 258 257 257 257 256 256 257 257 257 256 257 257 257 257 257 257 258 258 258 258 258 258 259 259 258 259 260 260 260 261 262 263 263 264 265 265 265 266 266 266 267 268 268 270 272 273 273 274 275 276 277 278 279 280 280 280 280 281 281 281 281
267 269 268 268 269 269 267 265 264 265 264 262 262 262 261 260 260 260 259 259 259 259 258 258 258 258 258 257 257 256 256 257 257 256 256 257 257 257 257 257 257 258 258 258 258 258 258 259 259 259 259 260 260 260 261 262 262 263 263 264 264 264 265 266 266 267 267 268 269 271 272 273 274 275 276 277 277 278 279 279 279 279 280 280 280 279
Wind_Speed
4 3 3 5 7 8 8 8 6 5 6 6 5 4 4 4 4 4 4 5 2 5 5 6 6 8 10 8 10 13 7 4 11 13 16 19 20 22 21 20 19 18 18 16 15 15 13 13 13 14 14 13 12 13 13 13 12 12 14 17 19 20 21 22 23 22 20 19 17 14 13 13 11 11 13 15 20 22 21 24 29 30 30 30 31 30
3 4 6 7 8 7 7 7 6 4 5 5 5 5 2 3 4 4 3 5 3 3 4 1 4 8 9 9 10 11 6 5 12 13 16 21 22 23 22 22 20 18 20 20 20 19 16 15 14 14 15 14 14 13 14 14 13 13 13 14 16 17 19 20 22 24 24 23 22 20 17 15 13 13 15 14 16 18 16 14 20 25 28 32 33 31
1 4 8 7 5 4 4 7 8 4 5 4 3 4 2 3 2 4 4 5 4 2 4 1 3 7 9 9 9 9 8 11 17 17 17 20 20 21 21 21 20 20 23 24 22 19 17 16 13 12 12 13 13 13 14 15 15 15 14 13 14 15 16 16 18 21 24 24 24 24 23 22 20 17 17 17 17 19 19 15 14 16 20 28 35 35
2 5 7 6 5 6 4 5 8 4 3 3 3 4 2 2 2 2 4 4 3 1 1 1 3 6 7 8 9 13 15 16 21 19 17 18 18 21 22 21 22 24 25 23 19 17 16 15 14 12 12 12 13 13 14 14 15 15 14 13 12 12 13 14 14 15 19 21 22 24 25 26 26 25 23 22 21 22 22 21 21 20 19 21 25 27
4 5 2 4 5 6 6 5 7 6 1 2 3 5 3 3 4 3 2 1 3 4 2 1 4 5 6 8 9 10 10 12 16 17 18 20 20 22 23 22 22 23 22 20 17 16 16 15 14 13 12 11 12 13 13 13 12 12 12 11 11 10 11 12 13 13 15 18 20 22 23 24 26 28 28 28 28 27 27 27 28 27 24 22 20 19
6 6 1 5 3 4 7 4 4 6 2 3 3 6 6 6 5 2 3 4 4 4 2 1 3 5 4 6 8 6 3 4 6 7 13 17 17 19 21 20 19 18 17 17 15 14 13 13 12 11 10 9 8 9 11 11 11 10 10 10 10 10 10 10 11 13 14 16 18 19 21 23 24 27 29 30 30 30 29 29 28 27 26 24 22 20
4 2 2 5 4 5 6 2 4 5 4 1 4 6 6 6 6 6 5 4 1 3 3 2 3 6 6 4 6 4 3 2 4 4 8 13 13 13 14 13 14 15 15 14 12 11 11 11 11 10 9 8 7 7 7 8 8 9 9 8 8 8 10 10 10 12 14 14 16 18 19 21 23 25 27 28 28 28 28 27 26 26 24 23 23 22
3 1 4 4 5 5 4 2 4 6 6 2 3 4 6 6 6 7 7 4 2 2 3 3 3 3 5 5 5 3 3 6 6 5 7 8 8 11 12 12 12 12 12 11 10 11 10 10 9 7 9 9 8 7 6 5 5 5 5 5 5 6 8 9 10 11 12 13 14 15 17 19 21 22 23 24 25 25 25 24 25 25 24 24 23 23
1 1 1 4 4 3 3 3 6 7 4 3 2 6 5 5 5 5 6 3 1 2 3 4 1 1 5 6 5 4 3 3 5 6 5 10 18 23 25 25 24 22 17 13 13 15 14 13 13 12 13 12 9 7 7 6 4 4 3 3 4 5 7 9 10 11 11 12 13 14 15 17 18 19 21 22 23 24 23 23 23 24 25 26 25 26
1 1 1 4 4 3 5 3 5 7 3 2 5 8 6 6 5 5 5 3 4 2 6 7 3 2 5 4 0 3 3 2 6 3 4 13 22 26 28 30 30 30 28 25 23 23 24 24 22 18 15 14 12 9 7 6 4 3 3 3 4 5 7 9 11 13 13 13 14 14 15 16 16 18 19 21 22 24 24 23 23 24 25 26 28 29
2 3 2 1 3 4 3 1 2 5 6 6 6 7 7 7 5 4 3 4 4 3 8 7 7 5 4 3 3 2 1 3 3 3 7 12 22 26 27 29 30 30 30 28 26 24 22 22 20 17 15 16 14 11 9 8 7 5 4 3 4 5 8 10 11 13 15 16 17 16 15 15 15 16 18 20 21 22 23 24 24 24 24 25 27 30
6 4 3 2 2 2 3 3 3 3 6 6 5 5 4 4 5 5 5 4 2 7 6 5 8 7 4 5 2 1 4 5 4 6 8 10 18 23 25 29 31 32 31 31 29 26 22 20 19 17 15 15 13 11 12 12 11 10 9 7 5 5 7 9 10 11 13 15 17 17 16 15 15 16 18 19 20 21 22 23 24 24 25 26 26 29
4 3 3 3 2 2 4 2 2 4 3 5 5 6 4 1 3 1 3 1 3 7 4 3 4 4 6 5 3 6 8 10 10 11 12 13 18 22 25 28 31 33 33 34 33 31 29 27 25 23 20 17 14 13 13 13 13 14 13 11 10 9 8 9 10 11 12 12 13 15 16 15 15 15 17 18 19 20 21 21 23 24 25 27 27 29
3 4 4 3 2 1 5 4 2 1 2 5 6 6 6 4 2 3 4 1 4 5 3 2 4 2 6 3 7 8 9 13 16 19 19 20 21 22 25 28 33 35 34 34 34 33 32 31 29 27 25 23 20 17 15 13 13 14 15 14 12 12 12 11 10 10 11 11 11 11 12 13 13 15 16 18 18 19 19 20 22 23 24 25 27 28
3 5 3 1 2 2 2 3 4 4 3 4 4 5 5 6 5 5 5 3 4 3 2 1 2 2 4 2 6 8 12 17 20 21 21 23 22 22 27 32 35 36 34 33 33 32 31 29 28 28 27 26 24 21 18 16 15 13 14 15 14 13 13 12 11 9 9 9 10 10 10 10 12 14 16 17 18 18 19 20 21 22 23 23 25 28
2 5 4 2 3 3 3 2 1 4 1 1 2 4 3 4 5 3 4 6 4 1 1 2 1 2 4 6 5 7 12 16 19 20 22 23 22 26 32 34 35 36 35 33 32 31 30 28 27 27 27 26 26 24 22 21 20 17 14 13 13 13 13 12 12 11 10 8 8 9 10 11 12 13 15 17 18 18 18 19 20 21 22 22 24 26
1 3 5 3 3 3 2 3 2 2 2 1 2 3 4 2 5 3 3 3 3 1 3 3 2 1 5 5 3 6 10 12 14 17 19 20 22 27 30 32 33 34 34 33 31 30 30 29 28 27 27 27 26 26 25 24 24 22 18 15 13 12 11 11 11 11 11 10 9 9 10 12 13 13 13 14 16 17 18 19 21 22 23 23 24 25
2 2 5 1 1 3 4 2 3 4 3 4 2 4 1 1 3 3 2 1 2 3 4 4 6 6 5 4 2 6 10 10 10 11 13 16 20 21 22 27 32 33 33 32 31 30 29 29 29 28 27 26 26 26 25 25 24 23 21 19 16 14 12 12 12 11 11 11 11 10 10 12 12 13 14 13 14 15 18 20 22 22 23 24 24 24
3 1 6 2 2 6 7 2 0 6 6 4 2 1 3 1 1 2 3 2 3 5 4 4 7 6 3 3 3 6 8 8 7 8 10 13 16 16 16 24 31 32 32 33 32 31 30 29 29 30 29 28 28 28 26 25 24 23 22 21 19 17 15 13 11 10 9 10 11 11 11 12 12 13 13 13 14 15 17 20 21 20 20 23 24 24
2 2 4 4 3 4 6 2 1 4 5 3 2 3 3 3 2 2 3 1 2 5 4 4 6 2 1 2 6 8 7 6 6 7 9 10 13 14 16 22 29 32 32 32 31 30 29 29 29 29 29 29 28 28 28 27 27 26 25 24 22 21 18 15 12 10 10 10 10 11 11 11 12 12 12 12 13 15 15 16 17 17 18 21 23 24
2 2 3 5 5 3 2 1 1 1 3 3 3 3 3 1 0 1 1 1 2 3 4 5 5 1 1 3 7 8 6 6 6 6 7 9 12 13 16 21 26 29 30 30 29 29 29 29 29 28 28 28 28 29 30 30 30 29 28 28 27 26 24 21 18 14 12 11 11 12 12 12 12 12 12 13 13 14 14 13 14 15 17 20 22 24
2 2 1 2 4 2 1 1 1 0 1 1 1 0 1 1 1 1 3 2 1 2 2 4 4 1 2 4 6 7 6 6 8 8 7 9 12 13 15 21 25 27 28 29 28 29 30 30 29 28 28 28 29 31 32 33 32 32 32 31 30 28 26 25 24 19 15 13 12 12 14 14 13 13 13 14 14 14 13 12 13 16 19 22 24 26
2 3 1 2 2 2 2 2 3 2 5 5 1 1 1 1 2 1 4 1 1 1 0 1 3 1 3 4 6 7 7 8 10 11 10 10 12 13 14 19 24 26 26 27 28 28 29 29 28 28 28 28 29 30 32 34 34 34 34 33 32 30 27 26 26 23 19 16 13 12 14 15 15 14 14 14 15 16 14 13 14 17 20 22 25 27
3 3 0 3 3 4 5 3 4 5 5 5 2 3 3 2 2 2 2 1 1 2 1 1 4 2 3 4 8 10 9 11 12 13 13 12 12 13 14 17 23 26 26 26 27 28 28 27 27 28 28 29 29 30 31 32 33 34 34 34 34 32 30 28 27 25 22 18 15 14 14 16 16 16 15 15 15 17 17 16 15 17 20 22 23 25
2 1 1 1 3 5 5 5 5 5 3 3 1 2 4 4 3 1 1 2 0 3 3 4 4 1 5 5 8 10 9 10 12 13 13 13 13 15 15 16 20 25 27 28 28 28 29 29 29 29 29 29 29 29 30 31 31 32 33 33 34 33 32 30 29 28 25 21 18 16 16 16 17 18 18 17 17 17 18 18 18 18 20 22 23 25
1 1 3 3 3 4 1 2 2 2 1 1 1 2 3 4 4 2 1 1 1 3 3 4 2 1 6 7 7 7 7 8 10 11 12 12 14 17 19 20 20 23 27 29 29 30 30 30 30 29 29 29 29 29 29 29 30 30 30 31 31 32 33 32 30 30 28 24 20 18 18 18 18 18 19 19 19 18 18 19 20 20 21 22 22 24
3 1 2 5 6 5 5 6 4 1 0 2 1 1 0 1 1 2 1 3 2 2 4 4 3 2 4 1 5 7 7 7 7 10 11 11 13 16 20 22 22 23 26 28 29 30 31 30 30 30 29 29 29 29 28 28 28 29 29 29 29 29 31 32 31 29 28 25 21 19 19 19 20 19 19 20 20 19 20 20 20 21 21 22 23 24
4 1 3 5 6 7 7 7 3 3 1 3 3 4 3 3 4 3 4 6 1 1 7 7 1 4 10 6 5 6 7 6 6 8 9 10 11 13 16 20 22 24 26 28 29 30 31 31 31 31 30 29 29 28 27 27 26 26 26 26 26 27 28 30 29 28 27 25 22 20 19 19 20 20 19 20 20 20 20 20 20 21 22 23 24 25
5 3 4 4 6 8 5 5 2 3 3 4 3 5 6 4 5 6 7 8 3 3 8 9 7 10 11 4 4 5 7 6 6 7 7 8 10 11 14 17 21 24 26 28 29 30 31 32 32 31 30 29 29 28 28 27 26 26 25 25 24 24 25 27 27 26 25 23 21 20 20 19 20 20 19 19 20 20 20 20 20 21 22 24 25 27
4 2 3 4 4 7 4 4 4 5 3 4 5 7 7 7 9 9 8 7 7 8 9 10 13 13 7 3 4 4 7 5 5 6 6 7 10 11 13 14 17 22 25 26 28 29 30 31 32 32 31 30 29 29 29 28 27 27 26 25 23 22 23 24 25 23 22 22 20 20 20 19 18 19 19 19 19 20 20 21 21 22 23 25 26 28
2 0 1 3 0 6 5 2 5 5 6 5 6 8 8 8 10 10 9 7 7 9 10 10 13 10 1 5 3 5 9 7 5 6 6 6 8 10 12 13 15 19 23 25 26 28 29 30 31 32 32 32 30 29 29 28 28 27 26 25 24 21 20 22 22 21 20 20 19 19 20 19 17 17 18 18 19 20 20 21 22 23 24 25 27 28
2 1 2 2 1 5 3 1 3 3 2 3 7 8 9 9 8 7 8 8 8 9 9 9 8 4 2 4 3 5 10 9 7 7 6 5 6 8 9 10 13 16 20 23 25 27 28 29 30 31 32 33 32 30 29 28 28 27 26 25 24 22 20 19 20 20 19 18 18 18 19 19 16 15 15 17 18 19 20 21 22 23 25 26 28 29
2 2 1 0 3 4 1 3 3 0 2 4 6 8 10 9 8 8 9 9 6 4 6 7 3 1 2 4 3 3 6 6 7 8 6 4 6 8 7 9 11 13 17 21 24 25 27 28 29 30 31 32 32 31 30 29 28 26 25 25 24 23 22 19 18 19 19 18 17 17 17 18 16 13 13 15 18 19 20 21 23 24 25 27 28 29
2 3 1 1 2 2 0 1 1 2 4 4 1 4 7 7 8 9 7 5 2 1 1 1 2 3 3 4 3 4 6 8 10 9 4 4 7 9 8 10 12 13 15 19 22 24 26 27 28 29 30 31 31 32 31 30 28 26 24 23 23 22 22 20 18 18 19 18 17 16 16 16 15 13 12 14 17 19 21 22 23 25 26 28 28 29
2 3 1 1 2 2 0 2 2 6 7 2 3 2 1 1 2 3 2 1 1 2 1 2 3 3 3 3 2 5 9 13 14 9 6 6 9 12 15 16 16 16 18 19 20 23 26 27 28 29 29 30 31 32 32 32 31 28 24 22 22 21 21 20 18 18 18 18 17 16 16 16 15 14 13 13 16 19 21 23 24 25 26 27 28 29
2 2 2 1 2 1 1 2 4 6 4 3 2 1 2 2 3 2 1 3 1 1 0 1 1 1 2 2 3 6 12 16 13 8 9 8 9 15 21 23 20 20 21 22 22 24 26 27 28 28 28 29 29 30 31 32 32 31 27 23 22 21 21 20 19 17 18 19 18 17 16 17 16 14 14 13 14 19 22 23 25 26 26 27 28 28
3 2 1 1 1 2 2 3 4 4 6 6 4 0 2 1 1 1 1 3 2 2 1 1 1 1 3 4 7 11 14 12 7 6 8 6 9 17 24 25 23 22 24 25 25 26 26 27 28 28 28 28 27 27 29 31 31 31 29 25 23 22 21 20 19 18 18 18 19 18 17 17 16 15 16 15 14 18 22 24 25 26 26 27 28 28
4 3 3 2 2 2 2 3 3 2 5 5 2 2 2 1 1 1 1 1 2 3 2 2 2 2 3 4 8 12 11 7 4 4 7 6 14 23 26 26 24 24 25 26 26 27 27 27 27 27 27 27 26 25 26 28 29 29 28 26 24 23 21 20 19 18 17 18 19 18 17 17 17 16 17 17 16 17 22 24 25 25 26 27 27 28
2 1 4 3 2 1 2 2 2 3 6 4 3 2 1 1 3 2 2 2 3 6 4 3 3 4 4 4 5 7 5 4 2 2 4 13 23 27 27 27 25 26 26 26 26 27 27 28 27 26 26 26 26 25 25 26 28 28 28 27 25 24 22 21 20 18 17 17 18 18 17 18 18 16 17 19 18 19 22 25 26 26 27 28 29 30
4 3 3 3 4 3 2 2 2 3 4 3 2 1 2 2 1 4 1 4 5 8 6 5 5 5 5 4 3 2 1 3 5 8 17 26 30 28 26 26 26 27 27 26 26 26 27 27 27 26 25 24 24 25 24 25 27 27 27 26 25 25 23 22 21 18 16 16 17 18 18 18 18 17 18 20 20 20 22 24 26 27 28 29 30 32
2 1 1 3 3 4 4 3 3 3 3 2 2 3 3 1 3 2 2 3 7 9 6 5 5 5 5 5 5 4 7 10 15 22 28 30 30 29 26 25 26 26 26 26 26 26 26 26 25 26 25 23 23 23 23 25 26 26 26 25 25 25 24 23 22 19 16 16 17 18 19 19 19 18 19 20 21 21 22 24 25 27 29 30 32 33
1 1 0 2 2 2 3 2 3 5 3 3 3 3 4 3 1 3 2 4 8 7 4 4 5 5 5 7 8 11 15 19 22 27 29 29 30 29 27 27 27 26 25 25 24 25 26 26 25 24 23 21 21 21 22 23 24 25 25 24 24 24 24 22 21 19 16 15 16 18 20 19 19 19 19 20 20 21 22 24 26 28 29 31 31 31
3 2 2 2 3 1 1 1 2 5 3 6 6 2 3 3 2 2 3 3 5 4 2 3 5 5 7 11 13 16 20 23 24 26 27 27 28 28 28 29 28 26 25 25 24 24 25 26 25 24 22 20 19 20 21 22 23 24 23 23 23 23 23 21 20 18 16 14 15 17 19 19 18 19 20 21 20 21 22 24 26 28 29 30 30 30
2 3 3 3 2 2 2 3 4 3 5 7 5 1 2 2 1 1 2 3 4 4 4 5 6 8 11 15 18 20 22 23 24 25 26 27 27 28 28 28 27 26 25 24 24 24 24 25 25 24 22 19 18 18 19 20 23 23 21 22 22 22 21 20 18 17 15 13 13 16 19 19 17 19 22 21 20 21 23 24 25 27 28 29 29 29
2 3 3 2 2 3 4 5 4 4 5 6 5 4 3 3 4 2 2 3 4 6 7 8 10 12 15 18 20 22 22 22 24 25 26 28 28 27 28 28 26 25 25 24 23 23 23 24 24 23 22 19 17 17 17 18 21 22 20 20 21 21 20 17 16 15 14 11 11 15 18 17 16 20 22 22 21 22 24 25 25 26 27 27 27 28
1 2 3 1 2 3 3 4 4 4 6 7 6 6 5 5 6 5 5 6 7 8 10 11 14 17 19 19 20 21 22 23 25 26 26 27 27 27 27 27 25 24 24 24 23 22 22 23 22 22 22 18 15 16 16 16 19 20 19 19 19 19 18 15 14 14 12 9 9 14 17 15 15 19 22 22 22 24 25 25 26 26 26 25 25 25
1 3 2 1 1 2 2 3 3 4 6 7 7 8 8 7 8 8 9 9 9 11 13 15 18 20 19 19 19 21 23 24 24 25 25 25 26 26 26 25 24 23 23 23 22 21 22 22 21 22 21 19 16 15 15 16 16 17 18 18 18 17 16 13 12 12 10 7 8 14 16 14 15 19 22 23 23 24 25 26 26 26 26 25 24 25
2 5 3 2 2 2 3 4 4 4 6 8 8 10 11 10 10 10 10 10 12 14 16 18 19 18 18 18 19 22 24 24 23 24 25 24 25 25 24 23 23 23 22 21 21 20 20 20 20 21 20 19 16 15 15 15 15 15 16 16 16 15 13 11 11 11 9 7 8 13 15 15 16 20 22 23 24 24 25 25 25 25 25 24 23 23
5 5 3 2 2 3 5 4 4 3 7 10 11 12 11 11 10 10 11 13 15 17 19 19 17 16 18 19 20 21 22 22 22 22 23 23 23 23 22 22 22 22 21 20 19 19 18 19 19 19 19 17 16 15 15 14 13 14 14 14 14 13 11 9 10 11 9 8 9 13 15 15 17 20 22 23 24 24 25 24 24 24 24 24 22 21
5 3 2 2 1 5 5 4 6 3 4 7 11 13 12 11 11 12 13 16 18 19 18 17 16 17 18 19 19 19 20 21 21 20 21 21 21 21 21 21 21 20 19 18 18 18 17 17 17 17 17 15 14 14 14 12 12 13 12 11 12 10 8 8 10 11 10 9 11 14 15 16 18 20 22 24 24 25 26 26 25 24 24 23 21 20
8 5 4 3 3 4 2 4 7 5 3 3 7 10 11 11 13 14 17 18 18 16 15 17 19 20 19 17 17 17 19 20 19 19 20 20 19 19 19 19 19 19 18 18 18 18 17 16 16 15 14 13 13 13 12 11 11 12 10 9 9 9 6 6 9 11 10 11 13 15 16 18 20 21 22 24 24 24 25 26 26 25 24 23 21 19
Wind_Direction
145 144 197 199 200 193 195 192 172 152 144 148 149 164 188 188 245 252 255 283 133 150 221 205 210 242 253 261 269 274 286 260 246 251 253 253 256 260 262 264 264 265 270 280 287 283 278 274 269 269 271 274 277 277 276 274 269 262 256 255 256 257 256 249 242 240 240 242 243 241 242 249 255 264 269 259 244 240 243 241 235 233 232 231 230 230
124 188 226 220 206 190 192 188 165 125 102 105 136 165 211 196 236 259 247 303 11 164 244 216 217 254 261 263 271 277 287 250 235 235 243 247 250 254 258 260 260 267 276 281 285 285 287 289 286 280 274 272 275 278 281 283 283 281 274 267 263 260 258 257 255 251 248 247 248 250 251 251 251 252 257 265 263 257 260 258 245 241 241 239 235 232
122 224 241 233 206 165 176 184 173 144 106 99 115 140 199 216 239 303 299 321 14 174 259 322 233 258 263 263 272 266 252 248 245 238 241 247 252 257 258 260 264 270 276 279 283 286 290 295 298 296 288 280 279 282 284 286 288 289 288 285 277 268 258 256 261 261 259 259 259 258 257 253 252 252 254 259 262 260 262 266 264 262 261 250 239 234
178 247 247 217 166 126 115 158 158 136 106 115 118 133 211 235 174 271 282 310 12 88 267 357 279 269 266 270 267 254 247 250 255 255 257 257 257 262 262 263 268 269 272 276 283 292 297 301 305 306 304 295 286 283 284 285 288 288 289 290 290 282 265 253 256 263 265 266 265 264 262 260 256 254 255 256 259 262 262 262 265 267 274 269 252 245
223 261 237 127 122 124 112 123 143 140 175 246 169 155 188 210 190 211 227 267 2 5 50 62 316 287 252 249 254 266 260 249 260 261 259 258 254 258 262 260 262 265 270 278 287 298 305 311 315 318 319 312 298 288 284 284 285 286 284 281 286 291 277 256 252 259 263 263 264 265 266 265 262 258 255 253 255 258 259 262 266 265 266 270 267 265
254 268 163 114 93 97 112 142 166 151 176 284 230 191 184 178 176 155 118 94 32 340 292 162 287 285 287 253 243 285 307 217 262 269 251 253 248 247 252 254 259 265 272 280 290 304 319 330 337 344 347 337 319 298 285 281 281 283 286 286 288 296 297 277 258 255 258 261 262 263 265 264 264 263 261 259 258 259 262 264 267 266 262 261 261 264
250 304 65 128 128 98 106 175 206 149 125 314 247 200 170 137 136 141 138 120 108 256 271 104 185 261 318 299 238 274 313 284 330 322 261 254 252 256 264 273 281 284 283 284 295 315 331 342 349 1 7 3 357 344 317 297 290 289 290 295 298 300 307 304 285 268 261 261 262 262 264 265 264 265 266 267 265 264 264 263 263 263 260 255 254 257
204 63 54 108 111 104 114 202 210 144 116 241 255 153 144 134 146 161 151 152 190 227 323 21 151 249 298 278 269 308 347 342 332 301 280 291 328 1 17 13 354 337 319 307 321 338 341 339 348 17 37 38 35 26 12 352 335 328 313 304 298 292 297 301 299 290 278 272 270 267 267 267 267 267 268 269 268 267 263 260 258 255 253 250 248 252
165 115 164 143 112 131 183 210 187 136 105 243 197 102 124 137 138 135 124 141 32 65 298 284 170 242 275 270 313 1 58 12 295 276 317 19 34 41 46 45 43 44 44 42 39 37 39 40 45 58 63 62 59 48 34 24 13 2 344 311 288 277 281 287 288 288 286 284 281 276 272 269 269 269 269 267 265 266 264 260 254 249 249 250 248 248
103 65 262 144 135 194 220 224 175 144 126 193 117 83 62 62 75 74 92 103 45 63 238 240 177 194 266 252 42 42 82 215 250 273 36 49 49 48 46 45 47 51 56 60 62 62 59 58 60 64 65 60 53 45 35 27 22 0 322 288 280 281 281 281 281 278 277 278 279 280 278 274 271 270 268 266 263 263 263 260 256 251 250 249 247 245
312 345 328 160 186 204 186 110 123 142 146 132 90 66 50 35 32 40 49 76 61 273 240 209 179 183 263 263 185 172 166 214 225 83 67 52 50 48 43 43 44 46 48 53 58 61 61 62 65 68 66 58 50 46 39 30 26 13 347 308 281 278 278 276 278 278 274 271 270 271 274 275 275 274 271 268 264 263 262 261 259 257 255 250 247 246
334 334 297 273 246 184 109 67 35 68 116 116 86 83 83 5 7 25 356 40 134 250 251 189 180 174 220 256 241 301 7 31 54 76 75 54 49 46 42 42 43 44 46 47 48 48 50 53 55 56 56 51 48 44 38 31 24 18 12 1 333 296 285 284 286 288 284 276 269 264 264 266 270 273 273 271 267 264 262 262 261 259 257 253 249 249
322 258 268 318 309 161 133 118 21 13 53 100 107 113 122 349 12 13 285 309 213 251 267 190 156 142 229 259 33 38 31 43 59 69 70 62 53 46 42 42 42 44 45 45 44 41 41 40 39 39 39 38 36 31 28 25 22 17 10 5 1 349 330 311 300 301 301 293 280 268 262 261 264 268 270 270 269 266 263 261 260 258 257 254 251 252
314 303 325 352 320 193 154 159 184 262 166 147 146 144 155 157 139 221 232 252 259 259 251 200 97 87 256 304 49 60 59 61 63 64 64 62 58 50 44 42 41 42 43 42 40 39 38 36 33 33 32 31 29 25 19 14 16 16 9 2 359 357 352 342 325 310 306 306 301 285 271 266 266 268 268 267 268 268 266 262 258 257 256 256 253 252
220 294 311 169 289 326 127 172 172 157 161 181 162 138 163 173 170 205 206 199 238 255 261 219 97 190 223 100 79 82 73 67 64 62 62 59 56 51 46 42 40 40 39 38 36 35 34 30 28 28 27 26 25 22 17 8 4 7 8 5 1 357 355 354 347 334 319 313 315 310 297 287 281 277 272 269 268 266 266 264 261 257 253 253 254 252
191 263 267 271 306 15 38 298 130 107 136 233 124 117 187 194 151 161 190 181 178 180 276 215 219 216 137 105 104 90 71 65 60 56 54 51 48 47 43 38 37 37 38 37 33 30 28 25 23 20 18 18 17 16 14 10 4 359 357 359 1 1 358 355 354 350 340 324 320 322 319 312 302 292 282 275 272 267 265 267 266 264 259 254 251 251
96 275 287 312 327 32 22 293 346 89 203 171 115 176 223 182 120 134 225 170 125 203 238 183 176 159 120 114 113 81 60 53 50 48 49 45 42 44 41 36 35 36 36 36 33 30 26 23 21 17 13 10 8 7 6 6 5 1 356 352 350 351 353 353 353 351 346 333 320 318 318 316 312 307 298 286 277 271 267 268 265 262 260 257 253 251
141 269 303 345 234 323 346 321 9 31 87 109 159 212 243 25 86 121 214 128 112 236 241 179 180 184 161 159 113 63 52 48 43 43 46 41 38 40 35 32 33 34 34 33 32 30 26 23 20 17 13 8 3 0 359 360 359 358 358 355 350 345 345 350 352 350 346 338 326 315 311 311 310 309 305 297 288 277 270 267 264 258 256 256 254 252
99 258 301 335 235 302 353 56 341 8 45 101 216 250 88 121 189 147 179 180 181 220 248 211 200 202 186 163 102 68 58 53 42 39 41 35 33 34 25 24 27 30 29 26 26 26 25 22 18 14 11 8 4 0 357 355 352 351 353 353 351 348 344 343 345 345 345 340 331 321 314 309 307 307 306 302 297 287 277 269 264 259 257 257 256 253
55 136 276 317 295 307 3 43 201 339 359 28 5 356 60 140 186 183 180 157 175 210 243 232 207 210 295 109 95 88 77 65 54 47 45 38 35 32 25 21 23 24 23 21 21 21 21 21 18 15 11 7 5 1 358 356 353 352 351 350 349 348 343 338 335 336 340 340 336 328 320 314 311 310 309 306 299 292 283 274 268 264 261 260 259 256
34 111 238 313 336 348 25 53 106 24 324 358 24 0 353 12 34 303 224 92 129 194 231 237 225 234 30 82 94 95 82 68 69 66 58 48 41 35 26 21 19 19 18 18 17 16 15 15 13 12 9 6 4 2 359 358 356 355 354 352 351 349 346 341 336 334 336 336 337 335 329 323 317 315 313 310 305 296 283 273 272 271 268 263 260 257
51 91 200 311 341 7 132 200 305 25 116 66 35 42 350 351 44 257 233 204 130 194 205 229 244 249 104 107 100 98 87 69 63 64 61 47 40 34 25 19 17 16 15 13 12 10 9 7 6 5 5 3 2 1 359 357 356 356 355 354 353 352 350 344 337 335 337 337 335 337 336 331 324 319 317 314 310 303 290 272 267 269 268 265 262 257
123 97 87 267 268 248 243 275 321 13 98 99 81 76 41 21 73 180 227 229 353 294 55 232 250 173 105 109 106 101 90 75 62 56 53 41 34 31 23 16 14 13 12 9 7 7 5 3 1 360 359 359 360 359 358 356 355 354 353 353 352 352 351 347 338 333 334 338 338 337 336 333 329 324 320 317 312 307 297 279 267 267 267 266 264 260
99 88 323 284 312 321 313 332 9 20 69 91 48 37 66 69 88 149 208 46 340 284 15 241 239 184 120 119 108 102 88 74 62 52 48 37 25 22 19 14 10 10 9 6 5 5 3 1 359 357 356 356 357 356 356 355 354 353 351 349 349 349 349 345 339 332 330 333 339 342 339 334 330 327 322 318 313 306 299 288 277 272 270 266 263 260
58 88 115 0 332 332 338 348 355 352 26 82 16 11 68 64 47 58 30 40 253 225 186 208 244 155 136 131 99 93 83 67 54 46 44 37 21 13 11 11 8 7 5 4 3 2 2 2 -0 359 357 355 354 353 353 353 352 351 350 347 346 345 344 342 339 334 329 328 333 341 342 336 330 327 323 318 312 305 297 290 284 277 272 266 259 255
99 138 117 113 218 239 259 267 271 295 327 46 6 355 38 25 16 37 13 344 230 229 187 188 241 79 135 126 80 64 65 59 47 40 37 33 21 9 5 5 5 5 3 2 1 359 359 0 360 359 357 354 352 351 350 349 349 348 347 346 344 341 339 339 338 334 328 325 329 336 340 337 331 326 322 316 311 304 296 288 282 276 269 262 256 251
91 68 158 153 184 207 199 219 233 116 1 311 323 256 179 52 68 103 172 238 227 313 292 225 189 248 248 242 39 38 45 46 35 32 29 25 19 8 1 359 359 1 1 359 359 357 355 355 355 355 355 353 350 348 347 346 346 345 343 343 342 338 336 335 333 330 326 323 325 329 333 334 330 325 320 314 308 301 294 286 278 270 264 257 251 245
89 333 238 166 204 226 198 214 259 82 165 264 290 273 246 179 166 164 215 241 216 21 279 264 185 268 282 314 22 24 26 29 27 32 26 17 15 8 360 355 354 356 357 355 355 354 353 352 350 350 351 350 348 345 343 343 343 342 341 340 338 335 333 330 328 327 323 319 321 323 326 327 325 321 317 311 305 298 291 284 275 266 258 251 244 238
112 241 242 164 232 252 210 205 207 125 191 229 225 254 262 237 218 208 219 237 225 213 259 280 294 282 287 333 51 26 13 10 14 30 28 16 13 7 3 358 353 352 352 352 351 349 349 348 347 346 345 344 345 343 340 339 338 337 337 337 335 333 330 326 323 322 318 315 316 317 318 319 317 315 312 306 300 295 288 279 271 261 251 244 238 232
112 235 231 166 238 279 261 209 167 156 211 233 221 234 246 255 253 244 240 235 222 230 249 268 276 277 292 60 92 33 13 5 17 30 27 18 12 5 4 1 354 350 349 347 346 344 343 342 341 342 341 340 341 340 339 337 335 334 334 333 333 330 327 323 319 317 313 310 311 312 310 310 309 306 305 301 294 288 282 274 266 257 247 239 232 227
83 172 199 126 348 296 280 204 154 177 205 219 237 240 235 247 258 263 268 255 234 246 249 252 263 269 9 77 78 21 7 5 24 26 16 20 16 6 3 0 353 349 346 344 342 339 337 336 335 337 338 338 338 337 336 335 333 332 331 329 329 327 324 321 316 312 308 305 305 305 303 301 299 297 295 292 286 280 274 267 260 252 243 236 229 223
80 87 356 44 288 281 288 155 181 201 202 239 256 248 237 241 247 252 260 255 251 259 257 258 264 256 78 60 54 17 3 357 1 5 6 18 18 11 8 0 353 347 342 341 340 336 334 332 332 333 333 334 335 334 333 332 330 330 328 326 324 323 321 318 312 306 302 299 297 296 294 291 288 286 284 281 275 269 264 258 252 245 238 231 224 219
128 137 5 308 252 280 14 149 195 124 17 289 254 229 228 235 240 243 248 252 259 266 260 265 265 168 54 30 24 359 353 342 341 352 359 9 15 14 5 353 349 343 337 337 336 333 331 329 328 329 329 330 331 331 331 330 328 327 326 323 321 318 315 313 307 301 297 293 290 287 285 281 277 272 269 266 262 258 253 248 242 236 231 225 219 215
126 140 177 182 215 278 15 94 354 317 270 271 243 185 210 226 237 243 246 254 281 21 272 266 87 82 47 42 19 336 326 322 328 336 335 348 5 7 356 344 342 336 331 333 333 330 327 325 322 323 324 326 327 327 327 327 325 325 324 319 314 310 307 305 300 295 291 288 283 278 274 270 265 257 250 248 248 246 243 238 233 228 224 219 214 209
125 130 195 188 160 219 313 43 328 261 246 263 45 71 151 165 196 219 241 269 326 14 22 70 83 77 59 51 332 307 310 315 320 312 283 301 337 348 348 342 337 333 330 330 328 325 325 323 319 318 319 321 322 323 323 323 322 322 321 316 310 304 299 296 292 288 285 282 277 270 264 259 254 245 235 230 233 235 233 230 226 222 217 214 209 204
166 144 194 200 169 194 92 138 219 250 274 297 305 341 23 59 99 98 235 234 210 100 139 142 92 63 40 349 307 314 320 319 315 286 263 278 317 335 339 338 334 329 327 327 325 322 322 322 319 318 317 316 318 319 318 319 320 319 320 317 310 302 293 287 284 279 277 276 272 265 257 250 244 235 226 218 218 224 225 223 221 217 212 208 204 200
168 132 154 191 190 163 157 214 246 306 315 289 269 1 43 53 96 92 260 232 188 162 198 203 227 329 334 320 316 327 329 324 303 251 232 255 315 328 329 330 328 323 322 323 322 319 319 318 317 317 316 315 316 316 315 315 316 316 318 316 309 301 291 281 276 272 270 270 267 260 251 242 235 227 219 211 208 215 218 217 216 213 208 204 200 196
179 176 155 163 207 148 153 269 300 311 276 261 213 143 113 49 329 317 0 284 198 182 178 178 208 278 302 302 315 330 335 322 286 206 198 253 315 323 323 323 322 319 320 321 319 317 316 314 313 313 314 313 314 314 312 312 313 314 315 314 308 301 292 279 271 267 263 262 261 257 247 235 227 219 214 208 202 206 213 213 212 209 205 203 200 195
102 119 129 154 241 128 137 227 220 221 249 238 168 157 158 288 307 353 35 326 217 181 175 181 209 250 258 258 304 337 343 306 281 171 246 297 312 316 318 319 317 316 318 318 317 316 313 312 310 309 309 309 309 310 310 310 311 312 312 311 306 302 295 283 273 266 260 257 256 253 245 231 220 213 210 206 200 200 207 210 209 206 203 201 199 193
48 51 110 173 229 214 187 230 226 231 255 235 177 195 223 246 4 71 23 282 215 182 188 201 217 245 247 249 286 336 235 259 284 298 301 306 310 312 315 316 314 315 317 316 316 315 312 311 310 307 307 307 308 309 309 308 309 310 310 310 305 301 297 287 278 270 261 255 252 251 243 227 215 210 208 205 200 198 201 205 206 204 200 195 191 186
10 10 134 162 208 222 218 241 269 262 247 222 218 214 190 128 70 110 224 228 178 178 197 212 226 248 251 253 264 255 253 271 289 298 303 307 310 312 315 315 312 313 315 314 315 315 312 310 309 307 307 308 308 308 307 306 307 308 309 308 305 301 297 290 281 273 263 254 250 248 241 225 211 207 207 204 200 196 196 197 196 194 190 184 180 176
283 289 307 134 166 213 205 206 280 287 244 162 151 180 162 112 108 197 185 135 156 177 202 220 233 252 263 270 275 275 281 290 295 300 305 308 309 312 315 315 313 313 313 313 313 314 314 312 309 306 305 306 307 306 305 305 306 307 308 307 304 300 297 291 282 272 262 253 247 246 238 222 208 204 205 203 199 196 194 191 184 178 175 172 169 167
177 184 257 220 192 183 111 165 264 282 228 149 126 140 184 172 171 165 128 135 178 195 208 225 241 260 272 283 290 290 294 299 300 302 305 305 306 311 313 314 315 316 316 314 313 314 315 312 309 307 305 306 307 306 305 305 304 306 307 306 303 300 297 291 281 271 260 249 245 243 234 218 204 200 202 200 197 196 195 189 179 172 168 165 164 165
200 176 213 240 209 146 161 210 224 227 189 164 157 201 216 208 268 93 138 170 199 224 244 250 262 274 282 291 298 298 299 301 302 304 305 305 308 312 312 312 315 317 317 316 315 316 315 312 310 308 306 306 307 305 305 305 304 304 306 306 303 300 297 289 278 268 255 243 241 240 230 215 200 197 197 194 193 195 194 187 179 172 169 167 168 170
238 169 171 220 228 188 194 214 209 178 173 188 221 259 260 254 270 265 208 207 228 253 268 276 281 287 294 298 299 298 299 301 304 305 304 305 309 311 311 312 315 317 317 316 316 316 314 311 311 308 305 307 309 305 304 304 304 303 304 305 304 301 296 287 275 264 249 234 235 236 226 212 198 194 192 189 191 194 191 185 179 174 172 172 173 173
228 128 119 162 268 280 257 215 193 186 197 212 233 254 258 251 253 263 267 260 258 265 274 283 290 296 301 300 297 297 299 302 304 303 303 306 309 310 310 312 315 317 318 317 317 316 313 311 311 308 307 309 310 306 303 303 303 303 304 305 304 302 297 287 273 259 241 223 227 230 221 205 193 191 188 187 190 192 189 184 181 178 176 175 175 174
233 162 151 185 269 305 285 224 197 196 210 218 227 236 241 244 248 258 266 266 267 274 279 287 296 299 299 297 296 297 300 302 302 301 304 307 308 308 312 315 316 318 319 318 318 316 313 312 312 311 311 312 312 309 305 303 303 302 304 306 305 302 298 287 271 254 233 209 217 223 213 195 186 185 184 186 190 190 187 183 181 181 178 176 175 173
162 155 176 209 188 207 244 228 202 207 229 233 234 236 239 245 249 254 263 269 273 281 289 294 299 299 296 296 298 298 299 300 300 302 305 307 307 309 314 316 317 318 319 318 318 315 314 313 313 314 315 316 316 313 308 307 304 301 304 307 304 301 298 287 268 247 220 192 204 216 205 185 178 179 179 183 188 188 185 183 182 181 178 175 175 172
132 153 197 188 180 265 273 230 184 230 258 243 233 237 243 248 251 254 262 272 280 288 293 295 296 296 296 298 300 298 297 298 301 303 305 305 306 311 315 316 317 317 318 318 318 316 316 315 314 316 318 317 317 316 312 310 307 304 306 308 304 302 300 286 262 237 207 179 190 206 197 179 173 174 174 178 182 184 182 181 181 181 178 175 175 172
142 180 201 154 226 270 270 194 174 213 276 240 228 235 241 246 254 261 269 280 287 292 294 294 294 297 300 300 300 298 297 300 304 304 303 304 308 314 317 317 317 317 317 319 320 319 317 316 316 319 319 318 318 317 314 315 313 308 308 308 305 303 301 282 254 228 197 172 179 194 189 174 168 169 171 172 176 180 181 179 179 179 177 175 175 174
197 210 186 181 234 248 222 176 186 208 271 261 239 241 242 249 263 273 280 286 290 291 292 296 300 302 303 301 300 299 299 302 305 304 304 306 312 316 318 318 317 318 320 323 322 320 319 319 320 320 320 319 319 317 319 323 320 312 312 314 308 301 298 281 253 227 195 169 172 182 181 173 167 166 169 171 171 175 178 178 177 177 174 172 171 171